logo Eve Who17,304,045 Characters
823,316 Corporations
8,987 Alliances

Home Pilots Corporations Alliances FAQ 

corp logo
alli logo
character image
Character:Caia Cadence
Corporation:Interstellar Expeditionary Group
Alliance:Einstein-Rosen Brigade
Sec. Status:4.6
Links:zKillboard
EveSkillBoard
Eve-Search
Last Updated: 2019-03-27 00:43:20 | 93185309
Corp. History
 NameJoinedLeft
corp logoInterstellar Expeditionary Group2019/01/12 01:59
corp logoAliastra2017/06/19 23:512019/01/12 01:58
corp logoInterstellar Expeditionary Group2017/01/07 18:192017/06/19 23:50
corp logoAliastra2016/12/14 23:152017/01/07 18:18
corp logoAltyr Exploration2015/12/16 20:482016/12/14 23:14
corp logoAliastra2015/12/16 06:442015/12/16 20:47
corp logoAltyr Exploration2015/12/12 00:462015/12/16 06:43
corp logoTerran Inquisitons2015/12/09 22:172015/12/12 00:45
corp logoAliastra2015/11/08 18:522015/12/09 22:16
corp logoK-Space Exiles.2015/10/25 22:142015/11/08 18:51
corp logoAliastra2015/10/25 22:072015/10/25 22:13
corp logoLoad Up Blast Everything2015/10/07 23:532015/10/25 22:06
corp logoAliastra2015/10/07 23:532015/10/07 23:52
corp logoPandemic Horde Inc.2015/10/06 00:112015/10/07 23:52
corp logoAliastra2015/10/06 00:102015/10/06 00:10
corp logoGiant Robot Factory2015/09/14 19:462015/10/06 00:09
corp logoAliastra2015/09/14 19:442015/09/14 19:45
corp logoPan Galactic Gargle Blasters2015/08/12 21:482015/09/14 19:43
corp logoAliastra2015/06/10 16:162015/08/12 21:47
corp logoHounds Of Chaos2015/06/05 04:512015/06/10 16:15
corp logoTHE PIRATE HUNTERS2015/06/02 14:322015/06/05 04:50
corp logoAliastra2015/06/02 14:282015/06/02 14:31
corp logoDigital Militia2015/06/01 22:482015/06/02 14:27
corp logoAliastra2015/06/01 22:392015/06/01 22:47
corp logoSimply Wild.2015/06/01 19:522015/06/01 22:38
corp logoAliastra2015/06/01 19:522015/06/01 19:51
corp logoSoldiers Of Doom2015/06/01 03:402015/06/01 19:51
corp logoAliastra2015/06/01 03:342015/06/01 03:39
corp logoThe Minutemen2015/05/07 03:082015/06/01 03:33
corp logoThrashers Unlimited2015/04/26 23:362015/05/07 03:07
corp logoAliastra2015/04/22 22:342015/04/26 23:35
corp logoBlack Aces2015/04/22 04:462015/04/22 22:33
corp logoAliastra2015/04/22 04:452015/04/22 04:45
corp logoHounds Of Chaos2015/04/20 23:042015/04/22 04:44
corp logoAliastra2015/04/20 22:342015/04/20 23:03
corp logoHounds of Liberty2015/04/18 01:422015/04/20 22:33
corp logoAliastra2015/04/18 01:392015/04/18 01:41
corp logoNoR CaL Enterprises2015/04/13 08:422015/04/18 01:38
corp logoAliastra2015/04/13 08:422015/04/13 08:41
corp logoHolocaust Of EvE2015/04/13 06:252015/04/13 08:41
corp logoAliastra2015/04/13 06:182015/04/13 06:24
corp logoHounds Of Chaos2015/04/12 22:222015/04/13 06:17
corp logoAliastra2015/04/12 22:182015/04/12 22:21
corp logoIrked inc.2015/04/10 00:242015/04/12 22:17
corp logoAliastra2015/04/10 00:232015/04/10 00:23
corp logoThrashers Unlimited2015/04/06 02:562015/04/10 00:22
corp logoAliastra2015/04/05 17:222015/04/06 02:55
corp logoNoR CaL Enterprises2015/04/02 01:062015/04/05 17:21
corp logoAliastra2015/04/01 00:582015/04/02 01:05
corp logoHounds Of Chaos2015/03/23 04:432015/04/01 00:57
corp logoAliastra2015/03/23 04:182015/03/23 04:42
corp logoSomeone Else's Problem2015/03/22 18:202015/03/23 04:17
corp logoAliastra2015/03/22 18:202015/03/22 18:19
corp logoHounds Of Chaos2015/03/22 16:472015/03/22 18:19
corp logoUnited Tactical Operations and Manufacturing2015/03/22 00:242015/03/22 16:46
corp logoAliastra2015/03/22 00:232015/03/22 00:23
corp logoHounds Of Chaos2015/01/25 04:532015/03/22 00:22
corp logoThrashers Unlimited2015/01/24 08:492015/01/25 04:52
corp logoAlcoholocaust.2015/01/23 05:492015/01/24 08:48
corp logoAliastra2015/01/23 05:482015/01/23 05:48
corp logoThe Filthy Few.2015/01/17 04:012015/01/23 05:47
corp logoAliastra2015/01/17 04:012015/01/17 04:00
corp logoPvP Nation2015/01/09 22:282015/01/17 04:00
corp logoAliastra2015/01/09 21:352015/01/09 22:27
corp logoRelentless Terrorism2015/01/03 21:162015/01/09 21:34
corp logoAliastra2014/12/31 09:092015/01/03 21:15
corp logoBlack Thorne Securities2014/12/16 12:132014/12/31 09:08
corp logoAliastra2014/12/14 21:122014/12/16 12:12
corp logoBlack Thorne Securities2014/12/06 22:472014/12/14 21:11
corp logoRed Federation2014/11/21 20:482014/12/06 22:46
corp logoThrashers Unlimited2014/11/19 18:172014/11/21 20:47
corp logoSetenta Corp2014/11/18 20:202014/11/19 18:16
corp logoPvP Nation2014/11/17 14:102014/11/18 20:19
corp logoAliastra2014/11/15 18:372014/11/17 14:09
corp logoIcendus Corux2014/11/14 23:042014/11/15 18:36
corp logoAliastra2014/11/14 22:302014/11/14 23:03
corp logoEmmorton Industrial Park2014/11/08 03:302014/11/14 22:29
corp logoNaliao Inc.2014/11/06 18:332014/11/08 03:29
corp logoAliastra2014/11/06 18:322014/11/06 18:32
corp logoThrashers Unlimited2014/11/01 17:402014/11/06 18:31
corp logoPvP Nation2014/10/29 22:182014/11/01 17:39
corp logoAliastra2014/10/29 04:282014/10/29 22:17
corp logoQuantum Reality R n D2014/10/28 01:072014/10/29 04:27
corp logoAliastra2014/10/28 01:062014/10/28 01:06
corp logoDirty Ghetto Kidz2014/10/25 08:022014/10/28 01:05
corp logoAliastra2014/10/25 07:492014/10/25 08:01
corp logoPvP Nation2014/10/22 23:032014/10/25 07:48
corp logoConoco.2014/10/21 11:532014/10/22 23:02
corp logoAliastra2014/10/21 10:042014/10/21 11:52
corp logoPvP Nation2014/10/20 08:172014/10/21 10:03
corp logoAliastra2014/10/20 08:162014/10/20 08:16
corp logoGood Looking Adventurers2014/10/20 03:182014/10/20 08:15
corp logoAliastra2014/10/20 02:522014/10/20 03:17
corp logoElysian.2014/10/20 01:472014/10/20 02:51
corp logoAliastra2014/10/20 01:452014/10/20 01:46
corp logoPvP Nation2014/10/11 01:392014/10/20 01:44
corp logoAliastra2014/10/11 01:352014/10/11 01:38
corp logoSpark Light Industries2014/10/11 01:342014/10/11 01:34
corp logoAliastra2014/10/11 01:342014/10/11 01:33
corp logoPugnacious Few2014/10/10 00:582014/10/11 01:33
corp logoAliastra2014/10/08 16:082014/10/10 00:57
corp logoRapid Withdrawal2014/10/07 21:342014/10/08 16:07
corp logoAliastra2014/10/07 17:042014/10/07 21:33
corp logoSpark Light Industries2014/10/06 16:442014/10/07 17:03
corp logoAliastra2014/10/06 16:342014/10/06 16:43
corp logoThrashers Unlimited2014/10/04 05:512014/10/06 16:33
corp logoAliastra2014/09/30 07:462014/10/04 05:50
corp logo5uddenly Rogue Drones2014/09/30 04:412014/09/30 07:45
corp logoAliastra2014/09/30 02:132014/09/30 04:40
corp logoImperial Black Legion2014/09/17 05:362014/09/30 02:12
corp logoAliastra2014/09/17 05:342014/09/17 05:35
corp logoConoco.2014/09/14 18:392014/09/17 05:33
corp logoAliastra2014/09/14 18:382014/09/14 18:38
corp logoEight Elite Inc2014/09/14 10:152014/09/14 18:37
corp logoAliastra2014/09/14 10:142014/09/14 10:14
corp logoSpark Light Industries2014/09/14 01:492014/09/14 10:13
corp logoAliastra2014/09/14 01:402014/09/14 01:48
corp logoThrashers Unlimited2014/09/07 21:132014/09/14 01:39
corp logoAliastra2014/09/07 21:122014/09/07 21:12
corp logoImperial Black Legion2014/08/29 14:482014/09/07 21:11
corp logoAliastra2014/08/29 14:472014/08/29 14:47
corp logoBlack VooDoo Asassins2014/08/28 08:402014/08/29 14:46
corp logoAliastra2014/08/28 08:352014/08/28 08:39
corp logoImperial Black Legion2014/08/25 20:222014/08/28 08:34
corp logoAliastra2014/08/25 20:212014/08/25 20:21
corp logoThrashers Unlimited2014/08/22 05:082014/08/25 20:20
corp logoAliastra2014/08/21 23:122014/08/22 05:07
corp logoEVE Protection Agency2014/08/21 22:542014/08/21 23:11
corp logoAliastra2014/08/21 22:502014/08/21 22:53
corp logoImperial Black Legion2014/08/05 15:502014/08/21 22:49
corp logoAliastra2014/08/02 09:282014/08/05 15:49
corp logoMASS A DEATH2014/07/29 04:462014/08/02 09:27
corp logoAliastra2014/07/29 03:322014/07/29 04:45
corp logoOPERATION BLACKLIST2014/07/29 02:142014/07/29 03:31
corp logoAliastra2014/07/29 01:572014/07/29 02:13
corp logoIn conspectu mortis in contumeliam2014/07/23 09:512014/07/29 01:56
corp logoAliastra2014/07/23 09:312014/07/23 09:50
corp logoBlue Democracy Project2014/07/22 17:022014/07/23 09:30
corp logoAliastra2014/07/22 17:022014/07/22 17:01
corp logoIn conspectu mortis in contumeliam2014/07/21 21:282014/07/22 17:01
corp logoAliastra2014/07/21 07:072014/07/21 21:27
corp logoTokers Anonymous2014/07/02 07:282014/07/21 07:06
corp logoAliastra2014/07/02 07:152014/07/02 07:27
corp logoThrashers Unlimited2014/07/01 22:542014/07/02 07:14
corp logoAliastra2014/07/01 22:502014/07/01 22:53
corp logoModulated Dreams2014/06/30 22:202014/07/01 22:49
corp logoAliastra2014/06/30 19:532014/06/30 22:19
corp logoSpark Light Industries2014/06/20 20:432014/06/30 19:52
corp logoAliastra2014/06/20 20:362014/06/20 20:42
corp logo87 Industries2014/06/20 15:232014/06/20 20:35
corp logoAliastra2014/06/20 15:222014/06/20 15:22
corp logoSpark Light Industries2014/06/16 22:082014/06/20 15:21
corp logoAliastra2014/06/16 22:072014/06/16 22:07
corp logoBlue Republic2014/06/15 23:592014/06/16 22:06
corp logoAliastra2014/06/15 08:492014/06/15 23:58
corp logoDark Forge Enterprise2014/06/15 08:432014/06/15 08:48
corp logoAliastra2014/06/15 08:012014/06/15 08:42
corp logo87 Industries2014/06/11 22:242014/06/15 08:00
corp logoAliastra2014/06/10 15:392014/06/11 22:23
corp logoThe Short Bus Express2014/06/10 14:452014/06/10 15:38
corp logoAliastra2014/06/09 20:282014/06/10 14:44
corp logoSmell Dat2014/06/07 20:242014/06/09 20:27
corp logoAliastra2014/06/07 20:032014/06/07 20:23
corp logoAviator Glasses Badasses2014/06/06 23:502014/06/07 20:02
corp logoAliastra2014/06/06 21:562014/06/06 23:49
corp logo87 Industries2014/06/06 05:482014/06/06 21:55
corp logoAliastra2014/06/05 20:142014/06/06 05:47
corp logoBlue Republic2014/06/04 20:282014/06/05 20:13
corp logoAliastra2014/06/04 15:362014/06/04 20:27
corp logoBlaze Box Inc.2014/06/02 16:242014/06/04 15:35
corp logoFederal Navy Academy2013/04/03 04:002014/06/02 16:23


Any pilots, corporations, or alliances that relate to actual people or entities are purely coincidental.
7q/43ms Disclaimer A / C Brought to you by: Squizz Caphinator Forum Thread
EVE Online and the EVE logo are the registered trademarks of CCP hf. All rights are reserved worldwide. All other trademarks are the property of their respective owners. EVE Online, the EVE logo, EVE and all associated logos and designs are the intellectual property of CCP hf. All artwork, screenshots, characters, vehicles, storylines, world facts or other recognizable features of the intellectual property relating to these trademarks are likewise the intellectual property of CCP hf. CCP hf. has granted permission to evewho.com to use EVE Online and all associated logos and designs for promotional and information purposes on its website but does not endorse, and is not in any way affiliated with, evewho.com. CCP is in no way responsible for the content on or functioning of this website, nor can it be liable for any damage arising from the use of this website.